This demonstration page uses our WeatherBlox Daily Observations layout. Learn more.

Left ArrowRight Arrow

53.62937, 11.41316

Hourly Observations for June 13, 2017

Temp ( °F °C ) Dew Point ( °F °C ) Humidity (%) Winds ( mph kmh ) Pressure ( in mb ) Visibility ( mi km ) Precip ( " mm )
6:20 am 06:20 Mostly Sunny 55 13 50 10 82 82 WSW 16 26 29.88 1012 7 11 N/A
6:50 am 06:50 Partly Cloudy 57 14 50 10 77 77 WSW 16 26 29.91 1013 30 48 N/A
7:20 am 07:20 Mostly Cloudy 57 14 52 11 82 82 W 15 24 29.91 1013 30 48 N/A
7:50 am 07:50 Cloudy 57 14 52 11 82 82 WSW 14 22 29.91 1013 30 48 N/A
8:20 am 08:20 Cloudy 57 14 52 11 82 82 W 15 24 29.91 1013 30 48 N/A
8:50 am 08:50 Cloudy 59 15 52 11 77 77 W 16 26 29.91 1013 30 48 N/A
9:20 am 09:20 Cloudy 59 15 54 12 82 82 WSW 18 30 29.91 1013 30 48 N/A
9:50 am 09:50 Cloudy 59 15 52 11 77 77 W 15 24 29.91 1013 30 48 N/A
10:20 am 10:20 Cloudy 61 16 54 12 77 77 W 14 22 29.94 1014 30 48 N/A
10:50 am 10:50 Cloudy 61 16 54 12 77 77 W 18 30 29.94 1014 30 48 N/A
11:20 am 11:20 Cloudy 61 16 52 11 72 72 W 17 28 29.94 1014 30 48 N/A
11:50 am 11:50 Mostly Cloudy 63 17 54 12 73 73 W 18 30 29.94 1014 30 48 N/A
12:06 pm 12:06 Mostly Cloudy 63 17 54 12 73 73 W 18 30 29.94 1014 30 48 N/A
12:20 pm 12:20 Mostly Cloudy 63 17 54 12 73 73 W 17 28 29.94 1014 30 48 N/A
12:24 pm 12:24 Mostly Cloudy 63 17 52 11 68 68 W 17 28 29.94 1014 30 48 N/A
12:50 pm 12:50 Mostly Cloudy 63 17 52 11 68 68 W 15 24 29.94 1014 30 48 N/A
1:20 pm 13:20 Mostly Cloudy 64 18 54 12 68 68 W 16 26 29.94 1014 30 48 N/A
1:50 pm 13:50 Mostly Cloudy 64 18 52 11 64 64 W 17 28 29.97 1015 30 48 N/A
2:20 pm 14:20 Mostly Cloudy 66 19 52 11 60 60 W 20 31 29.97 1015 30 48 N/A
2:50 pm 14:50 Mostly Cloudy 66 19 52 11 60 60 W 20 31 29.97 1015 30 48 N/A
3:20 pm 15:20 Mostly Cloudy 64 18 50 10 60 60 W 20 31 29.97 1015 30 48 N/A
3:50 pm 15:50 Mostly Cloudy 66 19 52 11 60 60 W 17 28 29.97 1015 30 48 N/A
4:20 pm 16:20 Mostly Cloudy 64 18 52 11 64 64 W 17 28 29.97 1015 30 48 N/A
4:50 pm 16:50 Mostly Cloudy 64 18 52 11 64 64 W 20 31 29.97 1015 30 48 N/A
5:20 pm 17:20 Mostly Cloudy 66 19 54 12 64 64 W 18 30 30.00 1016 30 48 N/A
5:50 pm 17:50 Partly Cloudy 64 18 54 12 68 68 W 16 26 30.00 1016 30 48 N/A

Powered by AerisWeather